Tillamook, OR

6:44 AM PST on February 06, 2016 (GMT -0800)
Tillamook

Weather History for KTMK - February, 2014

Change the Weather History Date:

Friday, February 14, 2014

  Actual Average (KMMV) Record (KMMV)
Temperature  
Mean Temperature 47 °F 42 °F  
Max Temperature 53 °F 50 °F 63 °F (1931)
Min Temperature 41 °F 35 °F 16 °F (1990)
Degree Days  
Heating Degree Days 18 23  
Month to date heating degree days 322  
Since 1 July heating degree days 3077  
Cooling Degree Days 0 0  
Month to date cooling degree days 0  
Year to date cooling degree days 0  
Moisture  
Dew Point 49 °F    
Average Humidity 96    
Maximum Humidity 100    
Minimum Humidity 77    
Precipitation  
Precipitation 0.55 in 0.14 in 1.27 in (1939)
Month to date precipitation 2.51  
Year to date precipitation 8.61  
Sea Level Pressure  
Sea Level Pressure 29.89 in    
Wind  
Wind Speed 9 mph (SSW)    
Max Wind Speed 23 mph    
Max Gust Speed 34 mph    
Visibility 7 miles    
Events Rain    
T = Trace of Precipitation, MM = Missing Value Source: NWS Daily Summary

Daily Weather History Graph

Daily Weather History Graph

Search for Another Location

Airport or City:

Trip Planner

Search our weather history database for the weather conditions in past years. The results will help you decide how hot, cold, wet, or windy it might be!

Date:

Astronomy

Feb. 14, 2014 Rise Set
Actual Time 8:18 AM MST 6:41 PM MST
Civil Twilight 7:47 AM MST 7:11 PM MST
Nautical Twilight 7:13 AM MST 7:46 PM MST
Astronomical Twilight 6:38 AM MST 8:20 PM MST
Moon 6:53 PM MST (2/14) 7:46 AM MST (2/14)
Length of Visible Light 11h 24m
Length of Day
10h 23m
Full, 100% of the Moon is Illuminated
Feb 14
Full
Feb 14
Full
Feb 22
Last Quarter
Mar 1
New
Mar 8
First Quarter

Hourly Weather History & Observations

Time (MST) Temp. Windchill Dew Point Humidity Pressure Visibility Wind Dir Wind Speed Gust Speed Precip Events Conditions
12:15 AM 50.0 °F - 50.0 °F 100% 29.78 in 5.0 mi Calm Calm - 0.05 in Rain Rain
12:35 AM 48.2 °F - 48.2 °F 100% 29.76 in 5.0 mi North 3.5 mph - 0.13 in Rain Heavy Rain
12:55 AM 48.2 °F - 48.2 °F 100% 29.75 in 3.0 mi Calm Calm - 0.21 in Rain Heavy Rain
1:15 AM 48.2 °F - 48.2 °F 100% 29.73 in 5.0 mi SSW 5.8 mph - 0.07 in Rain Heavy Rain
1:35 AM 50.0 °F - 50.0 °F 100% 29.74 in 5.0 mi SSE 6.9 mph - 0.14 in Rain Rain
1:55 AM 50.0 °F - 50.0 °F 100% 29.74 in 4.0 mi South 8.1 mph - 0.21 in Rain Rain
2:15 AM 50.0 °F - 50.0 °F 100% 29.75 in 7.0 mi SSE 5.8 mph - 0.02 in Rain Light Rain
2:35 AM 51.8 °F - 51.8 °F 100% 29.75 in 10.0 mi South 4.6 mph - 0.02 in   Overcast
2:55 AM 53.6 °F - 53.6 °F 100% 29.74 in 7.0 mi SW 17.3 mph 23.0 mph 0.02 in Rain Rain
3:15 AM 53.6 °F - 53.6 °F 100% 29.74 in 5.0 mi SW 12.7 mph 28.8 mph 0.01 in Rain Light Rain
3:35 AM 53.6 °F - 53.6 °F 100% 29.74 in 2.5 mi SW 12.7 mph 29.9 mph 0.05 in Rain Light Rain
3:55 AM 53.6 °F - 53.6 °F 100% 29.75 in 7.0 mi SSW 20.7 mph 25.3 mph 0.08 in Rain Light Rain
4:15 AM 51.8 °F - 51.8 °F 100% 29.76 in 7.0 mi SW 20.7 mph 26.5 mph N/A   Light Drizzle
4:35 AM 53.6 °F - 53.6 °F 100% 29.76 in 4.0 mi SSW 16.1 mph 25.3 mph N/A Rain Rain
4:55 AM 51.8 °F - 51.8 °F 100% 29.76 in 5.0 mi SSW 12.7 mph 27.6 mph 0.01 in Rain Rain
5:15 AM 51.8 °F - 51.8 °F 100% 29.77 in 7.0 mi SSW 12.7 mph 20.7 mph N/A Rain Light Rain
5:35 AM 51.8 °F - 51.8 °F 100% 29.76 in 7.0 mi SSW 16.1 mph 20.7 mph 0.01 in Rain Rain
5:55 AM 53.6 °F - 53.6 °F 100% 29.76 in 10.0 mi SSW 20.7 mph 27.6 mph 0.01 in   Overcast
6:15 AM 53.6 °F - 53.6 °F 100% 29.77 in 10.0 mi SW 19.6 mph 26.5 mph N/A   Overcast
6:35 AM 53.6 °F - 53.6 °F 100% 29.77 in 10.0 mi SSW 21.9 mph 34.5 mph N/A   Overcast
6:55 AM 53.6 °F - 53.6 °F 100% 29.78 in 7.0 mi SW 17.3 mph 24.2 mph 0.01 in Rain Light Rain
7:15 AM 53.6 °F - 53.6 °F 100% 29.79 in 10.0 mi SW 15.0 mph 24.2 mph N/A   Overcast
7:35 AM 51.8 °F - 51.8 °F 100% 29.81 in 7.0 mi WSW 23.0 mph 32.2 mph N/A   Mostly Cloudy
7:55 AM 51.8 °F - 51.8 °F 100% 29.83 in 7.0 mi SW 17.3 mph 25.3 mph N/A   Mostly Cloudy
8:15 AM 51.8 °F - 51.8 °F 100% 29.83 in 7.0 mi SW 15.0 mph - N/A   Mostly Cloudy
8:35 AM 51.8 °F - 50.0 °F 94% 29.83 in 7.0 mi SW 16.1 mph - N/A   Mostly Cloudy
8:55 AM 51.8 °F - 50.0 °F 94% 29.83 in 7.0 mi SW 11.5 mph 19.6 mph N/A   Mostly Cloudy
9:15 AM 51.8 °F - 51.8 °F 100% 29.85 in 7.0 mi SW 11.5 mph 18.4 mph N/A   Mostly Cloudy
9:35 AM 51.8 °F - 51.8 °F 100% 29.85 in 7.0 mi SW 12.7 mph 16.1 mph N/A   Mostly Cloudy
9:55 AM 51.8 °F - 51.8 °F 100% 29.87 in 7.0 mi SW 13.8 mph 20.7 mph N/A   Mostly Cloudy
10:15 AM 51.8 °F - 50.0 °F 94% 29.87 in 7.0 mi SW 16.1 mph - N/A   Mostly Cloudy
10:35 AM 51.8 °F - 48.2 °F 88% 29.89 in 7.0 mi SW 16.1 mph 26.5 mph N/A   Scattered Clouds
10:55 AM 51.8 °F - 48.2 °F 88% 29.90 in 7.0 mi SSW 18.4 mph 23.0 mph N/A   Mostly Cloudy
11:15 AM 51.8 °F - 46.4 °F 82% 29.92 in 7.0 mi SW 17.3 mph 27.6 mph N/A   Mostly Cloudy
11:35 AM 51.8 °F - 46.4 °F 82% 29.93 in 7.0 mi SW 12.7 mph 20.7 mph N/A   Mostly Cloudy
11:55 AM 51.8 °F - 46.4 °F 82% 29.94 in 7.0 mi SW 13.8 mph 18.4 mph N/A   Scattered Clouds
12:15 PM 53.6 °F - 46.4 °F 77% 29.94 in 7.0 mi SW 12.7 mph 21.9 mph N/A   Scattered Clouds
12:35 PM 53.6 °F - 46.4 °F 77% 29.95 in 7.0 mi WSW 12.7 mph 17.3 mph N/A   Scattered Clouds
12:55 PM 53.6 °F - 46.4 °F 77% 29.95 in 7.0 mi SW 10.4 mph - N/A   Mostly Cloudy
1:15 PM 53.6 °F - 46.4 °F 77% 29.96 in 7.0 mi SW 10.4 mph 18.4 mph N/A   Mostly Cloudy
1:35 PM 53.6 °F - 46.4 °F 77% 29.96 in 7.0 mi SW 12.7 mph - N/A   Mostly Cloudy
1:55 PM 51.8 °F - 48.2 °F 88% 29.96 in 7.0 mi SW 12.7 mph 18.4 mph N/A   Overcast
2:15 PM 51.8 °F - 50.0 °F 94% 29.97 in 5.0 mi SSW 10.4 mph 16.1 mph N/A   Overcast
2:35 PM 51.8 °F - 48.2 °F 88% 29.98 in 7.0 mi WSW 16.1 mph 20.7 mph N/A   Overcast
2:55 PM 51.8 °F - 48.2 °F 88% 29.97 in 7.0 mi WSW 11.5 mph - N/A   Mostly Cloudy
3:15 PM 51.8 °F - 48.2 °F 88% 29.98 in 7.0 mi WSW 13.8 mph - N/A   Scattered Clouds
3:35 PM 51.8 °F - 48.2 °F 88% 29.98 in 7.0 mi SW 9.2 mph - N/A   Scattered Clouds
3:55 PM 51.8 °F - 48.2 °F 88% 29.98 in 7.0 mi WSW 11.5 mph - N/A   Clear
4:15 PM 51.8 °F - 50.0 °F 94% 29.99 in 7.0 mi SW 9.2 mph - N/A   Mostly Cloudy
4:35 PM 51.8 °F - 50.0 °F 94% 29.98 in 7.0 mi SW 6.9 mph - N/A   Mostly Cloudy
4:55 PM 51.8 °F - 50.0 °F 94% 30.00 in 7.0 mi SW 8.1 mph - N/A   Mostly Cloudy
5:15 PM 51.8 °F - 50.0 °F 94% 30.00 in 7.0 mi SW 4.6 mph - N/A   Overcast
5:35 PM 50.0 °F - 50.0 °F 100% 30.00 in 7.0 mi SW 5.8 mph - N/A   Scattered Clouds
5:55 PM 50.0 °F - 48.2 °F 94% 30.00 in 7.0 mi SW 3.5 mph - N/A   Clear
6:15 PM 50.0 °F - 50.0 °F 100% 30.00 in 7.0 mi SW 4.6 mph - N/A   Clear
6:35 PM 48.2 °F - 48.2 °F 100% 29.99 in 7.0 mi South 3.5 mph - N/A   Clear
6:55 PM 48.2 °F - 48.2 °F 100% 30.00 in 7.0 mi SSE 4.6 mph - N/A   Clear
7:15 PM 46.4 °F 44.3 °F 46.4 °F 100% 29.99 in 7.0 mi SE 4.6 mph - N/A   Clear
7:35 PM 46.4 °F 45.2 °F 46.4 °F 100% 29.99 in 7.0 mi ESE 3.5 mph - N/A   Clear
7:55 PM 44.6 °F 43.1 °F 44.6 °F 100% 29.99 in 7.0 mi SSE 3.5 mph - N/A   Scattered Clouds
8:15 PM 44.6 °F 43.1 °F 44.6 °F 100% 29.98 in 7.0 mi SE 3.5 mph - N/A   Scattered Clouds
8:35 PM 44.6 °F 42.2 °F 44.6 °F 100% 29.98 in 7.0 mi SE 4.6 mph - N/A   Clear
8:55 PM 44.6 °F - 44.6 °F 100% 29.97 in 10.0 mi Calm Calm - N/A   Clear
9:15 PM 44.6 °F - 44.6 °F 100% 29.98 in 10.0 mi Calm Calm - N/A   Clear
9:35 PM 42.8 °F - 42.8 °F 100% 29.98 in 7.0 mi Calm Calm - N/A   Clear
9:55 PM 42.8 °F - 42.8 °F 100% 29.97 in 7.0 mi Calm Calm - N/A   Clear
10:15 PM 42.8 °F - 42.8 °F 100% 29.98 in 7.0 mi Calm Calm - N/A   Clear
10:35 PM 41.0 °F - 41.0 °F 100% 29.97 in 7.0 mi Calm Calm - N/A   Clear
10:55 PM 41.0 °F - 41.0 °F 100% 29.96 in 7.0 mi Calm Calm - N/A   Clear
11:15 PM 41.0 °F - 41.0 °F 100% 29.96 in 5.0 mi Calm Calm - N/A   Clear
11:35 PM 41.0 °F 39.0 °F 41.0 °F 100% 29.95 in 7.0 mi ESE 3.5 mph - N/A   Mostly Cloudy
11:55 PM 41.0 °F - 41.0 °F 100% 29.95 in 7.0 mi Calm Calm - N/A   Overcast